This is the latest recevied weather packets stored in our database for station/object DF2AP-13. If no packets are shown the sender has not sent any weather packets the latest 10 day(s).
| Time | Temp. | Humidity | Pressure | Rain* | Wind** | Luminosity | Snow |
|---|---|---|---|---|---|---|---|
| 1777527475 | 1.67° C | 61% | 1035 hPa | - | - | - | - |
| 1777526875 | 1.11° C | 64% | 1034.9 hPa | - | - | - | - |
| 1777526275 | 0° C | 69% | 1034.9 hPa | - | - | - | - |
| 1777525675 | 0° C | 72% | 1034.8 hPa | - | - | - | - |
| 1777525075 | -0.56° C | 72% | 1034.9 hPa | - | - | - | - |
| 1777524475 | -0.56° C | 72% | 1034.9 hPa | - | - | - | - |
| 1777523875 | -0.56° C | 71% | 1034.7 hPa | - | - | - | - |
| 1777523275 | -0.56° C | 71% | 1034.6 hPa | - | - | - | - |
| 1777522675 | -1.11° C | 70% | 1034.6 hPa | - | - | - | - |
| 1777522075 | -1.11° C | 70% | 1034.6 hPa | - | - | - | - |
| 1777521475 | -1.11° C | 70% | 1034.5 hPa | - | - | - | - |
| 1777520875 | -1.11° C | 70% | 1034.5 hPa | - | - | - | - |
| 1777520274 | -1.11° C | 69% | 1034.4 hPa | - | - | - | - |
| 1777519675 | -1.11° C | 68% | 1034.4 hPa | - | - | - | - |
| 1777519075 | -0.56° C | 67% | 1034.4 hPa | - | - | - | - |
| 1777518475 | -0.56° C | 66% | 1034.4 hPa | - | - | - | - |
| 1777517875 | -0.56° C | 66% | 1034.2 hPa | - | - | - | - |
| 1777517274 | 0° C | 65% | 1034.1 hPa | - | - | - | - |
| 1777516675 | 0° C | 64% | 1034.2 hPa | - | - | - | - |
| 1777516075 | 0° C | 63% | 1034.2 hPa | - | - | - | - |
| 1777515475 | 0.56° C | 62% | 1034.1 hPa | - | - | - | - |
| 1777514875 | 0.56° C | 62% | 1034.1 hPa | - | - | - | - |
| 1777514275 | 0.56° C | 61% | 1034.1 hPa | - | - | - | - |
| 1777513675 | 1.11° C | 59% | 1034.1 hPa | - | - | - | - |
| 1777513075 | 1.11° C | 59% | 1033.9 hPa | - | - | - | - |
* Rain since midnight (hover to see other rain measurements)
** Current wind speed in m/s (hover to see current wind gust speed)